Date,TemperatureHighF,TemperatureAvgF,TemperatureLowF,DewpointHighF,DewpointAvgF,DewpointLowF,HumidityHigh,HumidityAvg,HumidityLow,PressureMaxIn,PressureMinIn,WindSpeedMaxMPH,WindSpeedAvgMPH,GustSpeedMaxMPH,PrecipitationSumIn
2013-3-27,60,56,51,-100,-100,-100,0,0,100,0.00,40.00,10,6,15,0.00
2013-3-28,68,56,45,-100,-100,-100,0,0,100,0.00,40.00,10,6,16,0.00
2013-3-29,76,61,51,-100,-100,-100,0,0,100,0.00,40.00,5,3,9,0.00
2013-3-30,79,68,61,-100,-100,-100,0,0,100,0.00,40.00,6,4,9,0.00
2013-3-31,78,70,65,-100,-100,-100,0,0,100,0.00,40.00,9,6,14,0.00
2013-4-1,73,67,61,-100,-100,-100,0,0,100,0.00,40.00,10,7,17,0.00
2013-4-2,77,68,60,-100,-100,-100,0,0,100,0.00,40.00,6,4,12,0.00
2013-4-3,67,63,57,-100,-100,-100,0,0,100,0.00,40.00,9,6,17,0.00
2013-4-4,70,64,59,-100,-100,-100,0,0,100,0.00,40.00,12,7,18,0.00
2013-4-5,64,58,53,-100,-100,-100,0,0,100,0.00,40.00,14,10,22,0.00
2013-4-6,75,63,55,-100,-100,-100,0,0,100,0.00,40.00,7,4,12,0.00
2013-4-7,73,66,56,-100,-100,-100,0,0,100,0.00,40.00,6,4,13,0.00
2013-4-8,77,71,66,-100,-100,-100,0,0,100,0.00,40.00,8,6,13,0.00
2013-4-9,79,72,68,-100,-100,-100,0,0,100,0.00,40.00,7,6,14,0.00
2013-4-10,78,72,68,-100,-100,-100,0,0,100,0.00,40.00,9,5,17,0.00
2013-4-11,82,74,69,-100,-100,-100,0,0,100,0.00,40.00,13,9,22,0.00
2013-4-12,74,64,58,-100,-100,-100,0,0,100,0.00,40.00,14,10,25,0.00
2013-4-13,79,68,60,-100,-100,-100,0,0,100,0.00,40.00,6,5,13,0.00
2013-4-14,69,66,59,-100,-100,-100,0,0,100,0.00,40.00,15,7,26,0.00
2013-4-15,76,71,67,-100,-100,-100,0,0,100,0.00,40.00,4,3,12,0.00
2013-4-16,80,73,69,-100,-100,-100,0,0,100,0.00,40.00,5,3,12,0.00
2013-4-17,77,73,70,-100,-100,-100,0,0,100,0.00,40.00,7,3,15,0.00
2013-4-18,81,75,69,-100,-100,-100,0,0,100,0.00,40.00,8,7,17,0.00
2013-4-19,74,62,51,-100,-100,-100,0,0,100,0.00,40.00,22,12,32,0.00
2013-4-20,68,58,49,-100,-100,-100,0,0,100,0.00,40.00,12,9,23,0.00
2013-4-21,76,64,55,-100,-100,-100,0,0,100,0.00,40.00,6,5,13,0.00
2013-4-22,78,69,63,-100,-100,-100,0,0,100,0.00,40.00,7,5,13,0.00
2013-4-23,79,72,67,-100,-100,-100,0,0,100,0.00,40.00,10,8,20,0.00
2013-4-24,76,71,67,-100,-100,-100,0,0,100,0.00,40.00,9,6,16,0.00
2013-4-25,80,69,60,-100,-100,-100,0,0,100,0.00,40.00,10,6,17,0.00
2013-4-26,81,70,63,-100,-100,-100,0,0,100,0.00,40.00,6,4,14,0.00
2013-4-27,85,74,65,-100,-100,-100,0,0,100,0.00,40.00,6,4,11,0.00
2013-4-28,86,76,71,-100,-100,-100,0,0,100,0.00,40.00,7,4,12,0.00
2013-4-29,85,75,70,-100,-100,-100,0,0,100,0.00,40.00,10,6,18,0.00
2013-4-30,79,74,71,-100,-100,-100,0,0,100,0.00,40.00,7,6,18,0.00
2013-5-1,73,72,70,-100,-100,-100,0,0,100,0.00,40.00,8,6,29,0.00
2013-5-2,73,70,66,-100,-100,-100,0,0,100,0.00,40.00,8,4,18,0.00
2013-5-3,71,69,68,-100,-100,-100,0,0,100,0.00,40.00,6,4,13,0.00
2013-5-4,68,59,50,-100,-100,-100,0,0,100,0.00,40.00,21,15,32,0.00
2013-5-5,69,64,58,-100,-100,-100,0,0,100,0.00,40.00,13,8,26,0.00
2013-5-6,72,64,54,-100,-100,-100,0,0,100,0.00,40.00,11,7,23,0.00
2013-5-7,74,68,60,-100,-100,-100,0,0,100,0.00,40.00,7,5,15,0.00
2013-5-8,84,72,64,-100,-100,-100,0,0,100,0.00,40.00,13,4,19,0.00
2013-5-9,87,77,69,-100,-100,-100,0,0,100,0.00,40.00,5,4,9,0.00
2013-5-10,84,71,71,-100,-100,-100,0,0,100,0.00,40.00,9,6,17,0.00
2013-5-11,75,72,67,-100,-100,-100,0,0,100,0.00,40.00,8,5,18,0.00
2013-5-12,81,73,69,-100,-100,-100,0,0,100,0.00,40.00,11,7,16,0.00
2013-5-13,77,69,60,-100,-100,-100,0,0,100,0.00,40.00,12,7,18,0.00
2013-5-14,85,71,64,-100,-100,-100,0,0,100,0.00,40.00,8,5,11,0.00
2013-5-15,88,72,65,-100,-100,-100,0,0,100,0.00,40.00,7,4,11,0.00
2013-5-16,87,70,71,-100,-100,-100,0,0,100,0.00,40.00,9,7,15,0.00
2013-5-17,91,76,72,-100,-100,-100,0,0,100,0.00,40.00,9,7,14,0.00
2013-5-18,89,78,73,-100,-100,-100,0,0,100,0.00,40.00,11,7,17,0.00
2013-5-19,89,78,74,-100,-100,-100,0,0,100,0.00,40.00,11,8,15,0.00
2013-5-20,91,81,74,-100,-100,-100,0,0,100,0.00,40.00,10,7,15,0.00
2013-5-21,91,82,75,-100,-100,-100,0,0,100,0.00,40.00,8,6,15,0.00
2013-5-22,85,79,76,-100,-100,-100,0,0,100,0.00,40.00,9,5,12,0.00
2013-5-23,91,81,73,-100,-100,-100,0,0,100,0.00,40.00,10,5,19,0.00
2013-5-24,95,83,78,-100,-100,-100,0,0,100,0.00,40.00,7,5,14,0.00
2013-5-25,91,78,70,-100,-100,-100,0,0,100,0.00,40.00,8,6,21,0.00
2013-5-26,87,78,70,-100,-100,-100,0,0,100,0.00,40.00,7,4,13,0.00
2013-5-27,89,82,76,-100,-100,-100,0,0,100,0.00,40.00,8,7,14,0.00
2013-5-28,89,80,73,-100,-100,-100,0,0,100,0.00,40.00,9,7,17,0.00
2013-5-29,87,81,76,-100,-100,-100,0,0,100,0.00,40.00,13,9,23,0.00
2013-5-30,87,81,78,-100,-100,-100,0,0,100,0.00,40.00,11,10,22,0.00
2013-5-31,89,82,78,-100,-100,-100,0,0,100,0.00,40.00,11,10,27,0.00
2013-6-1,92,82,77,-100,-100,-100,0,0,100,0.00,40.00,11,9,17,0.00
2013-6-2,93,83,77,-100,-100,-100,0,0,100,0.00,40.00,8,6,13,0.00
2013-6-3,95,83,77,-100,-100,-100,0,0,100,0.00,40.00,7,5,12,0.00
2013-6-4,97,85,79,-100,-100,-100,0,0,100,0.00,40.00,8,6,15,0.00
2013-6-5,93,82,80,-100,-100,-100,0,0,100,0.00,40.00,10,8,17,0.00
2013-6-6,88,78,71,-100,-100,-100,0,0,100,0.00,40.00,12,9,20,0.00
2013-6-7,89,78,74,-100,-100,-100,0,0,100,0.00,40.00,9,6,15,0.00
2013-6-8,96,83,78,-100,-100,-100,0,0,100,0.00,40.00,8,5,13,0.00
2013-6-9,82,77,74,-100,-100,-100,0,0,100,0.00,40.00,17,12,24,0.00
2013-6-10,83,80,76,-100,-100,-100,0,0,100,0.00,40.00,10,7,17,0.00
2013-6-11,93,84,78,-100,-100,-100,0,0,100,0.00,40.00,11,7,17,0.00
2013-6-12,94,86,80,-100,-100,-100,0,0,100,0.00,40.00,11,5,16,0.00
2013-6-13,92,86,79,-100,-100,-100,0,0,100,0.00,40.00,12,6,17,0.00
2013-6-14,93,86,81,-100,-100,-100,0,0,100,0.00,40.00,9,5,14,0.00
2013-6-15,90,83,78,-100,-100,-100,0,0,100,0.00,40.00,7,5,11,0.00
2013-6-16,89,84,81,-100,-100,-100,0,0,100,0.00,40.00,12,7,21,0.00
2013-6-17,86,84,82,-100,-100,-100,0,0,100,0.00,40.00,15,8,21,0.00
2013-6-18,88,84,82,-100,-100,-100,0,0,100,0.00,40.00,16,11,21,0.00
2013-6-19,90,82,74,-100,-100,-100,0,0,100,0.00,40.00,11,6,21,0.00
2013-6-20,91,82,77,-100,-100,-100,0,0,100,0.00,40.00,5,3,9,0.00
2013-6-22,87,86,85,-100,-100,-100,0,0,100,0.00,40.00,4,4,8,0.00
2013-6-23,87,83,80,-100,-100,-100,0,0,100,0.00,40.00,8,5,19,0.00
2013-6-24,97,85,82,-100,-100,-100,0,0,100,0.00,40.00,9,6,13,0.00
2013-6-25,86,83,80,-100,-100,-100,0,0,100,0.00,40.00,7,4,13,0.00
2013-6-26,87,84,81,-100,-100,-100,0,0,100,0.00,40.00,9,6,15,0.00
2013-6-27,92,87,83,-100,-100,-100,0,0,100,0.00,40.00,9,6,18,0.00
2013-6-28,95,88,84,-100,-100,-100,0,0,100,0.00,40.00,13,7,21,0.00
2013-6-29,90,84,79,-100,-100,-100,0,0,100,0.00,40.00,7,4,13,0.00
2013-6-30,86,82,77,-100,-100,-100,0,0,100,0.00,40.00,10,5,15,0.00
2013-7-1,90,83,76,-100,-100,-100,0,0,100,0.00,40.00,9,6,17,0.00
2013-7-2,91,82,78,-100,-100,-100,0,0,100,0.00,40.00,4,3,9,0.00
2013-7-3,84,80,77,-100,-100,-100,0,0,100,0.00,40.00,10,5,19,0.00
2013-7-4,87,79,73,-100,-100,-100,0,0,100,0.00,40.00,13,8,21,0.00
2013-7-5,80,77,74,-100,-100,-100,0,0,100,0.00,40.00,10,6,17,0.00
2013-7-6,78,77,74,-100,-100,-100,0,0,100,0.00,40.00,13,8,23,0.00
2013-7-7,84,81,79,-100,-100,-100,0,0,100,0.00,40.00,7,5,11,0.00
2013-7-8,90,80,76,-100,-100,-100,0,0,100,0.00,40.00,4,3,9,0.00
2013-7-9,90,81,76,-100,-100,-100,0,0,100,0.00,40.00,7,4,12,0.00
2013-7-10,91,82,77,-100,-100,-100,0,0,100,0.00,40.00,10,4,15,0.00
2013-7-11,81,79,75,-100,-100,-100,0,0,100,0.00,40.00,11,5,20,0.00
2013-7-12,87,80,76,-100,-100,-100,0,0,100,0.00,40.00,5,4,9,0.00
2013-7-13,82,78,75,-100,-100,-100,0,0,100,0.00,40.00,10,5,17,0.00
2013-7-14,85,78,74,-100,-100,-100,0,0,100,0.00,40.00,7,5,15,0.00
2013-7-15,88,82,79,-100,-100,-100,0,0,100,0.00,40.00,7,4,12,0.00
2013-7-16,88,82,78,-100,-100,-100,0,0,100,0.00,40.00,11,6,21,0.00
2013-7-17,89,81,75,-100,-100,-100,0,0,100,0.00,40.00,6,5,13,0.00
2013-7-18,92,82,77,-100,-100,-100,0,0,100,0.00,40.00,6,4,12,0.00
2013-7-19,84,82,80,-100,-100,-100,0,0,100,0.00,40.00,8,5,19,0.00
2013-7-20,88,83,80,-100,-100,-100,0,0,100,0.00,40.00,13,8,21,0.00
2013-7-21,83,81,79,-100,-100,-100,0,0,100,0.00,40.00,8,5,16,0.00
2013-7-22,89,80,73,-100,-100,-100,0,0,100,0.00,40.00,11,6,18,0.00
2013-7-23,88,83,77,-100,-100,-100,0,0,100,0.00,40.00,7,6,22,0.00
2013-7-24,90,84,82,-100,-100,-100,0,0,100,0.00,40.00,7,5,19,0.00
2013-7-25,90,82,76,-100,-100,-100,0,0,100,0.00,40.00,8,6,15,0.00
2013-7-26,94,84,78,-100,-100,-100,0,0,100,0.00,40.00,10,5,18,0.00
2013-7-27,87,82,74,-100,-100,-100,0,0,100,0.00,40.00,8,4,16,0.00
2013-7-28,90,81,75,-100,-100,-100,0,0,100,0.00,40.00,10,8,25,0.00
2013-7-29,87,83,80,-100,-100,-100,0,0,100,0.00,40.00,8,4,12,0.00
2013-7-30,85,84,82,-100,-100,-100,0,0,100,0.00,40.00,6,4,10,0.00
2013-7-31,86,85,84,-100,-100,-100,0,0,100,0.00,40.00,8,5,12,0.00
2013-8-1,85,82,79,-100,-100,-100,0,0,100,0.00,40.00,6,4,14,0.00
2013-8-2,94,82,78,-100,-100,-100,0,0,100,0.00,40.00,7,4,10,0.00
2013-8-3,93,86,82,-100,-100,-100,0,0,100,0.00,40.00,11,6,16,0.00
2013-8-4,94,86,80,-100,-100,-100,0,0,100,0.00,40.00,11,5,20,0.00
2013-8-5,86,82,79,-100,-100,-100,0,0,100,0.00,40.00,8,6,13,0.00
2013-8-6,94,84,80,-100,-100,-100,0,0,100,0.00,40.00,6,5,9,0.00
2013-8-7,86,82,79,-100,-100,-100,0,0,100,0.00,40.00,6,4,14,0.00
2013-8-8,94,88,84,-100,-100,-100,0,0,100,0.00,40.00,8,5,16,0.00
2013-8-9,91,87,83,-100,-100,-100,0,0,100,0.00,40.00,12,8,19,0.00
2013-8-10,91,85,82,-100,-100,-100,0,0,100,0.00,40.00,7,5,12,0.00
2013-8-11,87,84,82,-100,-100,-100,0,0,100,0.00,40.00,7,5,15,0.00
2013-8-12,93,85,84,-100,-100,-100,0,0,100,0.00,40.00,7,4,12,0.00
2013-8-13,89,84,79,-100,-100,-100,0,0,100,0.00,40.00,6,4,13,0.00
2013-8-14,87,80,77,-100,-100,-100,0,0,100,0.00,40.00,9,4,21,0.00
2013-8-15,88,75,77,-100,-100,-100,0,0,100,0.00,40.00,8,4,13,0.00
2013-8-16,81,78,76,-100,-100,-100,0,0,100,0.00,40.00,6,4,12,0.00
2013-8-17,77,76,74,-100,-100,-100,0,0,100,0.00,40.00,10,6,23,0.00
2013-8-18,81,76,73,-100,-100,-100,0,0,100,0.00,40.00,10,6,19,0.00
2013-8-19,84,81,78,-100,-100,-100,0,0,100,0.00,40.00,7,4,12,0.00
2013-8-20,89,80,77,-100,-100,-100,0,0,100,0.00,40.00,4,3,10,0.00
2013-8-21,89,81,77,-100,-100,-100,0,0,100,0.00,40.00,4,3,10,0.00
2013-8-22,85,80,74,-100,-100,-100,0,0,100,0.00,40.00,7,5,13,0.00
2013-8-23,81,79,77,-100,-100,-100,0,0,100,0.00,40.00,7,4,16,0.00
2013-8-24,80,78,77,-100,-100,-100,0,0,100,0.00,40.00,5,3,9,0.00
2013-8-25,86,80,76,-100,-100,-100,0,0,100,0.00,40.00,6,5,15,0.00
2013-8-26,83,79,75,-100,-100,-100,0,0,100,0.00,40.00,7,4,13,0.00
2013-8-27,85,78,74,-100,-100,-100,0,0,100,0.00,40.00,6,4,13,0.00
2013-8-28,90,86,83,-100,-100,-100,0,0,100,0.00,40.00,4,3,8,0.00
2013-8-29,93,83,76,-100,-100,-100,0,0,100,0.00,40.00,9,5,16,0.00
2013-8-30,93,83,78,-100,-100,-100,0,0,100,0.00,40.00,11,6,17,0.00
2013-8-31,92,84,80,-100,-100,-100,0,0,100,0.00,40.00,6,5,14,0.00
2013-9-1,90,84,79,-100,-100,-100,0,0,100,0.00,40.00,7,4,15,0.00
2013-9-2,92,85,81,-100,-100,-100,0,0,100,0.00,40.00,10,6,16,0.00
2013-9-3,90,83,77,-100,-100,-100,0,0,100,0.00,40.00,9,5,13,0.00
2013-9-4,93,84,78,-100,-100,-100,0,0,100,0.00,40.00,6,4,12,0.00
2013-9-5,83,81,79,-100,-100,-100,0,0,100,0.00,40.00,4,3,7,0.00
2013-9-6,93,83,78,-100,-100,-100,0,0,100,0.00,40.00,6,4,11,0.00
2013-9-7,90,83,78,-100,-100,-100,0,0,100,0.00,40.00,6,4,11,0.00
2013-9-8,91,84,81,-100,-100,-100,0,0,100,0.00,40.00,5,4,10,0.00
2013-9-9,93,84,80,-100,-100,-100,0,0,100,0.00,40.00,5,4,10,0.00
2013-9-10,91,84,79,-100,-100,-100,0,0,100,0.00,40.00,9,5,16,0.00
2013-9-11,92,84,79,-100,-100,-100,0,0,100,0.00,40.00,8,5,13,0.00
2013-9-12,91,82,76,-100,-100,-100,0,0,100,0.00,40.00,7,5,13,0.00
2013-9-13,94,84,77,-100,-100,-100,0,0,100,0.00,40.00,10,5,15,0.00
2013-9-14,91,82,79,-100,-100,-100,0,0,100,0.00,40.00,7,5,12,0.00
2013-9-15,82,79,74,-100,-100,-100,0,0,100,0.00,40.00,7,4,11,0.00
2013-9-16,91,82,78,-100,-100,-100,0,0,100,0.00,40.00,9,5,23,0.00
2013-9-17,92,83,75,-100,-100,-100,0,0,100,0.00,40.00,5,4,10,0.00
2013-9-18,80,79,78,-100,-100,-100,0,0,100,0.00,40.00,5,4,11,0.00
2013-9-19,86,83,80,-100,-100,-100,0,0,100,0.00,40.00,8,5,19,0.00
2013-9-20,90,84,81,-100,-100,-100,0,0,100,0.00,40.00,9,8,16,0.00
2013-9-21,86,81,78,-100,-100,-100,0,0,100,0.00,40.00,11,7,20,0.00
2013-9-22,79,76,71,-100,-100,-100,0,0,100,0.00,40.00,10,7,17,0.00
2013-9-23,90,80,73,-100,-100,-100,0,0,100,0.00,40.00,6,4,11,0.00
2013-9-24,84,79,75,-100,-100,-100,0,0,100,0.00,40.00,11,5,17,0.00
2013-9-25,85,80,76,-100,-100,-100,0,0,100,0.00,40.00,9,6,14,0.00
2013-9-26,88,79,74,-100,-100,-100,0,0,100,0.00,40.00,5,3,9,0.00
2013-9-27,81,77,74,-100,-100,-100,0,0,100,0.00,40.00,6,4,15,0.00
2013-9-28,85,78,73,-100,-100,-100,0,0,100,0.00,40.00,6,4,16,0.00
2013-9-29,83,77,71,-100,-100,-100,0,0,100,0.00,40.00,5,4,14,0.00
2013-9-30,85,77,73,-100,-100,-100,0,0,100,0.00,40.00,4,3,10,0.00
2013-10-1,81,81,81,-100,-100,-100,0,0,100,0.00,40.00,5,5,9,0.00
2013-10-2,79,78,75,-100,-100,-100,0,0,100,0.00,40.00,7,4,14,0.00
2013-10-3,85,80,77,-100,-100,-100,0,0,100,0.00,40.00,11,7,18,0.00
2013-10-4,89,82,77,-100,-100,-100,0,0,100,0.00,40.00,8,5,17,0.00
2013-10-5,86,82,80,-100,-100,-100,0,0,100,0.00,40.00,11,8,17,0.00
2013-10-6,80,78,75,-100,-100,-100,0,0,100,0.00,40.00,10,7,18,0.00
2013-10-7,77,71,64,-100,-100,-100,0,0,100,0.00,40.00,15,13,26,0.00
2013-10-8,82,69,60,-100,-100,-100,0,0,100,0.00,40.00,13,8,20,0.00
2013-10-9,78,73,68,-100,-100,-100,0,0,100,0.00,40.00,6,4,17,0.00
2013-10-10,78,72,66,-100,-100,-100,0,0,100,0.00,40.00,6,4,12,0.00
2013-10-11,86,77,71,-100,-100,-100,0,0,100,0.00,40.00,5,4,8,0.00
2013-10-12,86,78,72,-100,-100,-100,0,0,100,0.00,40.00,5,3,10,0.00
2013-10-13,84,77,73,-100,-100,-100,0,0,100,0.00,40.00,6,4,13,0.00
2013-10-14,87,75,68,-100,-100,-100,0,0,100,0.00,40.00,7,5,14,0.00
2013-10-15,83,76,69,-100,-100,-100,0,0,100,0.00,40.00,5,4,11,0.00
2013-10-16,82,75,69,-100,-100,-100,0,0,100,0.00,40.00,6,5,13,0.00
2013-10-17,86,80,75,-100,-100,-100,0,0,100,0.00,40.00,9,6,13,0.00
2013-10-18,82,72,65,-100,-100,-100,0,0,100,0.00,40.00,10,6,19,0.00
2013-10-19,70,69,66,-100,-100,-100,0,0,100,0.00,40.00,11,8,19,0.00
2013-10-20,76,67,58,-100,-100,-100,0,0,100,0.00,40.00,11,7,15,0.00
2013-10-21,71,68,63,-100,-100,-100,0,0,100,0.00,40.00,7,6,13,0.00
2013-10-22,76,70,67,-100,-100,-100,0,0,100,0.00,40.00,6,3,9,0.00
2013-10-23,71,66,62,-100,-100,-100,0,0,100,0.00,40.00,14,12,20,0.00
2013-10-24,77,66,59,-100,-100,-100,0,0,100,0.00,40.00,8,4,14,0.00
2013-10-25,69,62,56,-100,-100,-100,0,0,100,0.00,40.00,11,8,21,0.00
2013-10-26,67,57,51,-100,-100,-100,0,0,100,0.00,40.00,7,5,13,0.00
2013-10-27,74,65,56,-100,-100,-100,0,0,100,0.00,40.00,5,4,10,0.00
2013-10-28,82,70,63,-100,-100,-100,0,0,100,0.00,40.00,6,4,11,0.00
2013-10-29,81,72,65,-100,-100,-100,0,0,100,0.00,40.00,8,4,12,0.00
2013-10-30,81,75,69,-100,-100,-100,0,0,100,0.00,40.00,9,6,15,0.00
2013-10-31,80,78,76,-100,-100,-100,0,0,100,0.00,40.00,12,10,23,0.00
2013-11-1,78,72,66,-100,-100,-100,0,0,100,0.00,40.00,9,6,17,0.00
2013-11-2,75,67,60,-100,-100,-100,0,0,100,0.00,40.00,12,9,18,0.00
2013-11-3,64,59,52,-100,-100,-100,0,0,100,0.00,40.00,11,8,19,0.00
2013-11-4,76,68,61,-100,-100,-100,0,0,100,0.00,40.00,7,5,16,0.00
2013-11-5,78,68,60,-100,-100,-100,0,0,100,0.00,40.00,7,4,19,0.00
2013-11-6,78,70,66,-100,-100,-100,0,0,100,0.00,40.00,4,3,12,0.00
2013-11-7,71,64,53,-100,-100,-100,0,0,100,0.00,40.00,17,11,29,0.00
2013-11-8,66,57,50,-100,-100,-100,0,0,100,0.00,40.00,12,9,20,0.00
2013-11-9,75,63,55,-100,-100,-100,0,0,100,0.00,40.00,7,5,17,0.00
2013-11-10,79,64,59,-100,-100,-100,0,0,100,0.00,40.00,7,5,14,0.00
2013-11-11,78,65,57,-100,-100,-100,0,0,100,0.00,40.00,5,4,9,0.00
2013-11-12,71,61,46,-100,-100,-100,0,0,100,0.00,40.00,16,9,33,0.00
2013-11-13,59,47,37,-100,-100,-100,0,0,100,0.00,40.00,15,12,28,0.00
2013-11-14,66,54,45,-100,-100,-100,0,0,100,0.00,40.00,8,6,18,0.00
2013-11-15,70,65,59,-100,-100,-100,0,0,100,0.00,40.00,8,4,15,0.00
2013-11-16,72,68,64,-100,-100,-100,0,0,100,0.00,40.00,8,4,18,0.00
2013-11-17,80,74,70,-100,-100,-100,0,0,100,0.00,40.00,8,5,18,0.00
2013-11-18,74,69,62,-100,-100,-100,0,0,100,0.00,40.00,12,6,17,0.00
2013-11-19,63,58,52,-100,-100,-100,0,0,100,0.00,40.00,10,8,16,0.00
2013-11-20,66,58,52,-100,-100,-100,0,0,100,0.00,40.00,8,4,16,0.00
2013-11-21,67,63,59,-100,-100,-100,0,0,100,0.00,40.00,6,4,16,0.00
2013-11-22,70,68,64,-100,-100,-100,0,0,100,0.00,40.00,3,2,9,0.00
2013-11-23,67,64,55,-100,-100,-100,0,0,100,0.00,40.00,12,8,25,0.00
2013-11-24,57,51,44,-100,-100,-100,0,0,100,0.00,40.00,14,12,26,0.00
2013-11-25,65,56,50,-100,-100,-100,0,0,100,0.00,40.00,20,7,32,0.00
2013-11-26,69,59,47,-100,-100,-100,0,0,100,0.00,40.00,20,12,37,0.00
2013-11-27,48,44,37,-100,-100,-100,0,0,100,0.00,40.00,19,14,32,0.00
2013-11-28,46,39,33,-100,-100,-100,0,0,100,0.00,40.00,8,7,17,0.00
2013-11-29,52,44,38,-100,-100,-100,0,0,100,0.00,40.00,6,4,14,0.00
2013-11-30,70,53,45,-100,-100,-100,0,0,100,0.00,40.00,6,4,11,0.00
2013-12-1,70,56,47,-100,-100,-100,0,0,100,0.00,40.00,4,3,6,0.00
2013-12-2,68,61,55,-100,-100,-100,0,0,100,0.00,40.00,6,3,9,0.00
2013-12-3,73,67,64,-100,-100,-100,0,0,100,0.00,40.00,5,4,9,0.00
2013-12-4,72,68,67,-100,-100,-100,0,0,100,0.00,40.00,6,4,11,0.00
2013-12-5,71,69,66,-100,-100,-100,0,0,100,0.00,40.00,7,6,11,0.00
2013-12-6,77,71,64,-100,-100,-100,0,0,100,0.00,40.00,9,5,13,0.00
2013-12-7,64,52,47,-100,-100,-100,0,0,100,0.00,40.00,12,10,20,0.00
2013-12-8,75,60,48,-100,-100,-100,0,0,100,0.00,40.00,12,5,17,0.00
2013-12-9,70,69,64,-100,-100,-100,0,0,100,0.00,40.00,12,3,17,0.00
2013-12-10,67,53,41,-100,-100,-100,0,0,100,0.00,40.00,13,9,27,0.00
2013-12-11,62,50,41,-100,-100,-100,0,0,100,0.00,40.00,10,6,17,0.00
2013-12-12,60,51,42,-100,-100,-100,0,0,100,0.00,40.00,11,9,22,0.00
2013-12-13,63,52,41,-100,-100,-100,0,0,100,0.00,40.00,8,5,14,0.00
2013-12-14,71,66,60,-100,-100,-100,0,0,100,0.00,40.00,8,5,15,0.00
2013-12-15,60,48,38,-100,-100,-100,0,0,100,0.00,40.00,15,9,29,0.00
2013-12-16,62,46,36,-100,-100,-100,0,0,100,0.00,40.00,7,5,13,0.00
2013-12-17,62,52,43,-100,-100,-100,0,0,100,0.00,40.00,7,4,13,0.00
2013-12-18,69,54,46,-100,-100,-100,0,0,100,0.00,40.00,7,4,13,0.00
2013-12-19,69,59,49,-100,-100,-100,0,0,100,0.00,40.00,9,3,13,0.00
2013-12-20,71,66,64,-100,-100,-100,0,0,100,0.00,40.00,10,5,15,0.00
2013-12-21,72,69,66,-100,-100,-100,0,0,100,0.00,40.00,12,9,18,0.00
2013-12-22,74,66,58,-100,-100,-100,0,0,100,0.00,40.00,13,8,25,0.00
2013-12-23,58,52,42,-100,-100,-100,0,0,100,0.00,40.00,12,9,24,0.00
2013-12-24,55,44,35,-100,-100,-100,0,0,100,0.00,40.00,11,9,25,0.00
2013-12-25,52,43,34,-100,-100,-100,0,0,100,0.00,40.00,9,6,15,0.00
2013-12-26,55,49,43,-100,-100,-100,0,0,100,0.00,40.00,10,8,16,0.00
2013-12-27,60,52,46,-100,-100,-100,0,0,100,0.00,40.00,10,8,16,0.00
2013-12-28,55,52,49,-100,-100,-100,0,0,100,0.00,40.00,8,7,17,0.00
2013-12-29,60,52,48,-100,-100,-100,0,0,100,0.00,40.00,8,5,17,0.00
2013-12-30,58,52,44,-100,-100,-100,0,0,100,0.00,40.00,4,2,8,0.00
2013-12-31,53,47,44,-100,-100,-100,0,0,100,0.00,40.00,10,7,16,0.00
2014-1-1,64,54,47,-100,-100,-100,0,0,100,0.00,40.00,6,4,12,0.00
2014-1-2,59,54,41,-100,-100,-100,0,0,100,0.00,40.00,20,9,181,0.00